Time,TemperatureF,DewpointF,PressureIn,WindDirection,WindDirectionDegrees,WindSpeedMPH,WindSpeedGustMPH,Humidity,HourlyPrecipIn,Conditions,Clouds,dailyrainin,SoftwareType,DateUTC
2013-06-13 00:00:00,68.0,63.0,29.67,ESE,113,1.1,2.0,84,0.04,,,0.00,WUHU216HW,2013-06-13 04:00:00,
2013-06-13 00:01:00,68.0,63.0,29.67,ESE,113,1.1,2.0,84,0.04,,,0.00,WUHU216HW,2013-06-13 04:01:00,
2013-06-13 00:06:00,67.9,62.8,29.65,South,180,1.8,2.0,84,0.05,,,0.01,WUHU216HW,2013-06-13 04:06:00,
2013-06-13 00:11:00,67.9,62.8,29.66,ESE,113,2.2,2.2,84,0.08,,,0.04,WUHU216HW,2013-06-13 04:11:00,
2013-06-13 00:16:00,67.7,62.6,29.65,NNW,338,1.1,2.2,84,0.09,,,0.05,WUHU216HW,2013-06-13 04:16:00,
2013-06-13 00:21:00,67.5,62.5,29.65,SSE,158,0.4,2.2,84,0.09,,,0.05,WUHU216HW,2013-06-13 04:21:00,
2013-06-13 00:26:00,67.5,62.5,29.64,East,90,2.0,2.0,84,0.11,,,0.07,WUHU216HW,2013-06-13 04:26:00,
2013-06-13 00:31:00,67.3,62.3,29.64,ESE,113,1.3,2.0,84,0.12,,,0.08,WUHU216HW,2013-06-13 04:31:00,
2013-06-13 00:36:00,67.3,62.3,29.65,East,90,0.9,1.6,84,0.13,,,0.09,WUHU216HW,2013-06-13 04:36:00,
2013-06-13 00:41:00,67.3,62.3,29.62,SSE,158,0.4,1.3,84,0.15,,,0.11,WUHU216HW,2013-06-13 04:41:00,
2013-06-13 00:46:00,67.1,62.1,29.65,WSW,248,0.7,2.0,84,0.17,,,0.14,WUHU216HW,2013-06-13 04:46:00,
2013-06-13 00:51:00,67.0,61.9,29.69,NW,315,2.5,2.5,84,0.15,,,0.14,WUHU216HW,2013-06-13 04:51:00,
2013-06-13 00:56:00,66.8,61.7,29.72,NW,315,3.8,3.8,84,0.20,,,0.20,WUHU216HW,2013-06-13 04:56:00,
2013-06-13 01:01:00,66.6,61.9,29.70,ENE,68,1.3,3.8,85,0.60,,,0.61,WUHU216HW,2013-06-13 05:01:00,
2013-06-13 01:06:00,66.1,61.4,29.65,ENE,68,1.3,2.9,85,1.17,,,1.18,WUHU216HW,2013-06-13 05:06:00,
2013-06-13 01:11:00,65.7,61.0,29.63,SE,135,2.5,3.6,85,1.30,,,1.34,WUHU216HW,2013-06-13 05:11:00,
2013-06-13 01:16:00,65.3,60.8,29.63,ESE,113,2.0,3.6,85,1.34,,,1.39,WUHU216HW,2013-06-13 05:16:00,
2013-06-13 01:21:00,65.2,60.6,29.63,ESE,113,4.9,4.9,85,1.34,,,1.40,WUHU216HW,2013-06-13 05:21:00,
2013-06-13 01:26:00,65.2,60.6,29.62,ESE,113,2.5,4.9,85,1.34,,,1.41,WUHU216HW,2013-06-13 05:26:00,
2013-06-13 01:31:00,65.2,60.6,29.63,SSE,158,0.9,3.6,85,1.34,,,1.42,WUHU216HW,2013-06-13 05:31:00,
2013-06-13 01:36:00,65.2,60.6,29.62,WNW,293,0.4,3.6,85,1.34,,,1.44,WUHU216HW,2013-06-13 05:36:00,
2013-06-13 01:41:00,65.2,60.6,29.63,SE,135,2.5,2.5,85,1.35,,,1.47,WUHU216HW,2013-06-13 05:41:00,
2013-06-13 01:46:00,65.2,60.8,29.63,West,270,0.0,2.5,86,1.35,,,1.49,WUHU216HW,2013-06-13 05:46:00,
2013-06-13 01:51:00,65.2,60.8,29.63,ENE,68,0.0,1.1,86,1.37,,,1.51,WUHU216HW,2013-06-13 05:51:00,
2013-06-13 01:56:00,65.2,60.8,29.62,SE,135,1.1,1.1,86,1.19,,,1.53,WUHU216HW,2013-06-13 05:56:00,
2013-06-13 02:01:00,65.2,60.8,29.61,ENE,68,1.6,1.6,86,0.82,,,1.55,WUHU216HW,2013-06-13 06:01:00,
2013-06-13 02:06:00,65.0,60.7,29.60,WNW,293,0.7,1.6,86,0.31,,,1.57,WUHU216HW,2013-06-13 06:06:00,
2013-06-13 02:11:00,65.0,60.4,29.60,East,90,0.9,1.1,85,0.21,,,1.57,WUHU216HW,2013-06-13 06:11:00,
2013-06-13 02:16:00,64.8,60.2,29.59,ENE,68,0.2,2.2,85,0.19,,,1.58,WUHU216HW,2013-06-13 06:16:00,
2013-06-13 02:21:00,64.8,60.6,29.57,SE,135,1.8,3.4,86,0.18,,,1.58,WUHU216HW,2013-06-13 06:21:00,
2013-06-13 02:26:00,64.8,60.2,29.56,SSW,203,0.4,3.4,85,0.18,,,1.60,WUHU216HW,2013-06-13 06:26:00,
2013-06-13 02:31:00,64.8,60.2,29.55,SSE,158,0.7,3.4,85,0.17,,,1.60,WUHU216HW,2013-06-13 06:31:00,
2013-06-13 02:36:00,64.6,60.0,29.53,ESE,113,2.5,3.4,85,0.15,,,1.60,WUHU216HW,2013-06-13 06:36:00,
2013-06-13 02:41:00,64.6,60.0,29.52,SSE,158,2.9,2.9,85,0.14,,,1.62,WUHU216HW,2013-06-13 06:41:00,
2013-06-13 02:46:00,64.4,59.9,29.53,SW,225,0.4,2.9,85,0.12,,,1.62,WUHU216HW,2013-06-13 06:46:00,
2013-06-13 02:51:00,64.4,59.9,29.54,SSE,158,0.4,1.8,85,0.09,,,1.62,WUHU216HW,2013-06-13 06:51:00,
2013-06-13 02:56:00,64.4,59.9,29.55,West,270,0.4,2.2,85,0.09,,,1.62,WUHU216HW,2013-06-13 06:56:00,
2013-06-13 03:01:00,64.3,59.7,29.55,SE,135,2.2,2.2,85,0.07,,,1.62,WUHU216HW,2013-06-13 07:01:00,
2013-06-13 03:06:00,64.3,59.7,29.56,ESE,113,1.8,2.2,85,0.05,,,1.62,WUHU216HW,2013-06-13 07:06:00,
2013-06-13 03:11:00,64.3,59.7,29.56,SE,135,1.1,4.0,85,0.05,,,1.62,WUHU216HW,2013-06-13 07:11:00,
2013-06-13 03:16:00,64.1,59.5,29.57,West,270,0.4,4.0,85,0.06,,,1.64,WUHU216HW,2013-06-13 07:16:00,
2013-06-13 03:21:00,64.1,59.5,29.57,ESE,113,0.2,2.2,85,0.09,,,1.67,WUHU216HW,2013-06-13 07:21:00,
2013-06-13 03:26:00,64.1,59.5,29.57,ESE,113,0.7,2.2,85,0.10,,,1.70,WUHU216HW,2013-06-13 07:26:00,
2013-06-13 03:31:00,64.1,59.5,29.57,ESE,113,0.7,2.5,85,0.17,,,1.77,WUHU216HW,2013-06-13 07:31:00,
2013-06-13 03:36:00,64.1,59.5,29.58,ESE,113,1.1,2.5,85,0.23,,,1.83,WUHU216HW,2013-06-13 07:36:00,
2013-06-13 03:41:00,63.9,59.3,29.58,SE,135,0.4,1.3,85,0.26,,,1.88,WUHU216HW,2013-06-13 07:41:00,
2013-06-13 03:46:00,64.1,59.5,29.58,ESE,113,0.7,1.1,85,0.33,,,1.95,WUHU216HW,2013-06-13 07:46:00,
2013-06-13 03:51:00,64.1,59.5,29.57,SE,135,1.1,1.1,85,0.36,,,1.98,WUHU216HW,2013-06-13 07:51:00,
2013-06-13 03:56:00,63.9,59.3,29.57,ESE,113,1.1,1.3,85,0.38,,,2.00,WUHU216HW,2013-06-13 07:56:00,
2013-06-13 04:01:00,63.9,59.3,29.57,SE,135,0.9,1.3,85,0.39,,,2.01,WUHU216HW,2013-06-13 08:01:00,
2013-06-13 04:06:00,64.1,59.5,29.57,SE,135,0.9,1.3,85,0.39,,,2.01,WUHU216HW,2013-06-13 08:06:00,
2013-06-13 04:11:00,64.1,59.5,29.57,ESE,113,0.0,1.3,85,0.40,,,2.02,WUHU216HW,2013-06-13 08:11:00,
2013-06-13 04:16:00,64.1,59.5,29.57,East,90,0.4,1.3,85,0.37,,,2.02,WUHU216HW,2013-06-13 08:16:00,
2013-06-13 04:21:00,64.1,59.5,29.58,SE,135,1.1,1.1,85,0.35,,,2.03,WUHU216HW,2013-06-13 08:21:00,
2013-06-13 04:26:00,63.9,59.3,29.57,ESE,113,0.7,1.8,85,0.30,,,2.03,WUHU216HW,2013-06-13 08:26:00,
2013-06-13 04:31:00,63.9,59.3,29.57,SE,135,0.4,1.8,85,0.25,,,2.04,WUHU216HW,2013-06-13 08:31:00,
2013-06-13 04:36:00,63.9,59.3,29.57,ESE,113,0.9,1.8,85,0.20,,,2.04,WUHU216HW,2013-06-13 08:36:00,
2013-06-13 04:41:00,63.9,59.3,29.58,South,180,0.7,1.8,85,0.13,,,2.04,WUHU216HW,2013-06-13 08:41:00,
2013-06-13 04:46:00,63.9,59.3,29.58,SE,135,1.1,1.1,85,0.08,,,2.05,WUHU216HW,2013-06-13 08:46:00,
2013-06-13 04:51:00,63.7,59.1,29.58,ESE,113,0.7,2.0,85,0.06,,,2.05,WUHU216HW,2013-06-13 08:51:00,
2013-06-13 04:56:00,63.7,59.1,29.59,SE,135,1.6,2.0,85,0.10,,,2.11,WUHU216HW,2013-06-13 08:56:00,
2013-06-13 05:01:00,63.7,59.1,29.59,ESE,113,1.1,2.0,85,0.12,,,2.13,WUHU216HW,2013-06-13 09:01:00,
2013-06-13 05:06:00,63.5,59.0,29.59,ESE,113,0.7,1.8,85,0.14,,,2.16,WUHU216HW,2013-06-13 09:06:00,
2013-06-13 05:11:00,63.7,59.1,29.60,WSW,248,0.2,1.3,85,0.14,,,2.16,WUHU216HW,2013-06-13 09:11:00,
2013-06-13 05:16:00,63.5,59.0,29.60,ESE,113,3.1,3.1,85,0.14,,,2.16,WUHU216HW,2013-06-13 09:16:00,
2013-06-13 05:21:00,63.5,59.0,29.59,SE,135,1.1,3.1,85,0.13,,,2.16,WUHU216HW,2013-06-13 09:21:00,
2013-06-13 05:26:00,63.5,59.0,29.60,SSW,203,0.9,3.1,85,0.13,,,2.16,WUHU216HW,2013-06-13 09:26:00,
2013-06-13 05:31:00,63.5,59.0,29.60,SE,135,0.4,3.1,85,0.12,,,2.16,WUHU216HW,2013-06-13 09:31:00,
2013-06-13 05:36:00,63.4,58.8,29.62,WSW,248,0.7,2.0,85,0.12,,,2.16,WUHU216HW,2013-06-13 09:36:00,
2013-06-13 05:41:00,63.4,58.8,29.63,SSW,203,0.4,2.0,85,0.12,,,2.16,WUHU216HW,2013-06-13 09:41:00,
2013-06-13 05:46:00,63.4,58.8,29.63,ESE,113,0.2,1.6,85,0.11,,,2.16,WUHU216HW,2013-06-13 09:46:00,
2013-06-13 05:51:00,63.4,58.8,29.64,South,180,0.0,1.1,85,0.10,,,2.16,WUHU216HW,2013-06-13 09:51:00,
2013-06-13 05:56:00,63.5,59.0,29.64,West,270,0.0,0.7,85,0.04,,,2.16,WUHU216HW,2013-06-13 09:56:00,
2013-06-13 06:01:00,63.5,59.0,29.65,WNW,293,0.7,0.7,85,0.02,,,2.16,WUHU216HW,2013-06-13 10:01:00,
2013-06-13 06:06:00,63.7,59.1,29.65,NNW,338,0.4,0.7,85,0.00,,,2.16,WUHU216HW,2013-06-13 10:06:00,
2013-06-13 06:11:00,63.7,59.1,29.65,SE,135,1.1,1.1,85,0.00,,,2.16,WUHU216HW,2013-06-13 10:11:00,
2013-06-13 06:16:00,63.7,59.1,29.65,ESE,113,2.5,2.5,85,0.00,,,2.16,WUHU216HW,2013-06-13 10:16:00,
2013-06-13 06:21:00,63.5,59.0,29.66,SE,135,1.1,2.5,85,0.02,,,2.18,WUHU216HW,2013-06-13 10:21:00,
2013-06-13 06:26:00,63.4,58.8,29.66,SSE,158,2.0,2.5,85,0.02,,,2.18,WUHU216HW,2013-06-13 10:26:00,
2013-06-13 06:31:00,63.0,58.4,29.66,SSE,158,0.9,2.9,85,0.02,,,2.18,WUHU216HW,2013-06-13 10:31:00,
2013-06-13 06:36:00,62.6,58.4,29.66,SE,135,1.8,2.9,86,0.02,,,2.18,WUHU216HW,2013-06-13 10:36:00,
2013-06-13 06:41:00,62.3,58.1,29.67,ESE,113,1.3,3.4,86,0.02,,,2.18,WUHU216HW,2013-06-13 10:41:00,
2013-06-13 06:46:00,61.9,57.7,29.67,SE,135,0.9,3.4,86,0.02,,,2.18,WUHU216HW,2013-06-13 10:46:00,
2013-06-13 06:51:00,61.7,57.5,29.68,ESE,113,1.8,1.8,86,0.04,,,2.20,WUHU216HW,2013-06-13 10:51:00,
2013-06-13 06:56:00,61.6,57.3,29.68,ESE,113,1.1,2.0,86,0.04,,,2.20,WUHU216HW,2013-06-13 10:56:00,
2013-06-13 07:01:00,61.4,57.2,29.68,ESE,113,0.9,2.0,86,0.04,,,2.20,WUHU216HW,2013-06-13 11:01:00,
2013-06-13 07:06:00,61.2,57.0,29.68,SE,135,1.3,1.6,86,0.04,,,2.20,WUHU216HW,2013-06-13 11:06:00,
2013-06-13 07:11:00,61.0,56.9,29.68,SE,135,0.4,2.5,86,0.04,,,2.20,WUHU216HW,2013-06-13 11:11:00,
2013-06-13 07:16:00,61.2,57.0,29.68,SE,135,0.0,2.5,86,0.02,,,2.20,WUHU216HW,2013-06-13 11:16:00,
2013-06-13 07:21:00,61.2,57.0,29.68,SSW,203,0.2,0.9,86,0.02,,,2.20,WUHU216HW,2013-06-13 11:21:00,
2013-06-13 07:26:00,61.0,56.9,29.69,SSW,203,0.0,0.9,86,0.02,,,2.20,WUHU216HW,2013-06-13 11:26:00,
2013-06-13 07:31:00,61.0,57.2,29.68,SE,135,0.4,0.7,87,0.02,,,2.20,WUHU216HW,2013-06-13 11:31:00,
2013-06-13 07:36:00,60.8,57.0,29.69,SSE,158,0.4,0.7,87,0.02,,,2.20,WUHU216HW,2013-06-13 11:36:00,
2013-06-13 07:41:00,60.8,56.7,29.69,SSE,158,0.0,1.1,86,0.02,,,2.20,WUHU216HW,2013-06-13 11:41:00,
2013-06-13 07:46:00,60.8,56.7,29.69,SSE,158,0.0,1.1,86,0.02,,,2.20,WUHU216HW,2013-06-13 11:46:00,
2013-06-13 07:51:00,61.0,56.9,29.69,SW,225,0.0,1.6,86,0.00,,,2.20,WUHU216HW,2013-06-13 11:51:00,
2013-06-13 07:56:00,61.0,56.9,29.70,South,180,0.4,1.6,86,0.00,,,2.20,WUHU216HW,2013-06-13 11:56:00,
2013-06-13 08:01:00,61.0,56.9,29.70,SSW,203,0.7,1.3,86,0.00,,,2.20,WUHU216HW,2013-06-13 12:01:00,
2013-06-13 08:06:00,61.0,56.9,29.70,SE,135,1.6,1.6,86,0.00,,,2.20,WUHU216HW,2013-06-13 12:06:00,
2013-06-13 08:11:00,61.0,56.9,29.70,SSW,203,0.4,1.6,86,0.00,,,2.20,WUHU216HW,2013-06-13 12:11:00,
2013-06-13 08:16:00,61.0,56.9,29.70,SSW,203,0.4,1.1,86,0.00,,,2.20,WUHU216HW,2013-06-13 12:16:00,
2013-06-13 08:21:00,61.0,56.9,29.70,ESE,113,1.1,1.1,86,0.00,,,2.20,WUHU216HW,2013-06-13 12:21:00,
2013-06-13 08:26:00,61.0,56.9,29.71,SSE,158,0.4,1.3,86,0.00,,,2.20,WUHU216HW,2013-06-13 12:26:00,
2013-06-13 08:31:00,61.2,57.0,29.71,WSW,248,0.7,1.3,86,0.00,,,2.20,WUHU216HW,2013-06-13 12:31:00,
2013-06-13 08:36:00,61.0,56.9,29.71,WNW,293,0.7,0.9,86,0.00,,,2.20,WUHU216HW,2013-06-13 12:36:00,
2013-06-13 08:41:00,61.0,56.9,29.72,SSW,203,0.4,0.9,86,0.00,,,2.20,WUHU216HW,2013-06-13 12:41:00,
2013-06-13 08:46:00,61.0,56.9,29.72,WNW,293,0.9,0.9,86,0.00,,,2.20,WUHU216HW,2013-06-13 12:46:00,
2013-06-13 08:51:00,61.2,57.3,29.72,South,180,0.4,1.1,87,0.00,,,2.20,WUHU216HW,2013-06-13 12:51:00,
2013-06-13 08:56:00,61.0,56.9,29.73,West,270,1.1,1.3,86,0.00,,,2.20,WUHU216HW,2013-06-13 12:56:00,
2013-06-13 09:01:00,61.0,56.9,29.73,West,270,0.4,1.3,86,0.00,,,2.20,WUHU216HW,2013-06-13 13:01:00,
2013-06-13 09:06:00,61.0,57.2,29.73,West,270,1.3,1.3,87,0.00,,,2.20,WUHU216HW,2013-06-13 13:06:00,
2013-06-13 09:11:00,61.0,56.9,29.73,West,270,1.1,1.3,86,0.00,,,2.20,WUHU216HW,2013-06-13 13:11:00,
2013-06-13 09:16:00,61.0,56.9,29.74,WSW,248,0.9,1.6,86,0.00,,,2.20,WUHU216HW,2013-06-13 13:16:00,
2013-06-13 09:21:00,61.2,57.0,29.73,SSW,203,0.4,1.6,86,0.00,,,2.20,WUHU216HW,2013-06-13 13:21:00,
2013-06-13 09:26:00,61.4,57.2,29.74,West,270,2.0,2.2,86,0.00,,,2.20,WUHU216HW,2013-06-13 13:26:00,
2013-06-13 09:31:00,61.4,57.2,29.74,ESE,113,1.3,2.2,86,0.00,,,2.20,WUHU216HW,2013-06-13 13:31:00,
2013-06-13 09:36:00,61.6,57.3,29.74,West,270,1.1,1.8,86,0.00,,,2.20,WUHU216HW,2013-06-13 13:36:00,
2013-06-13 09:41:00,61.7,57.5,29.74,WSW,248,0.7,2.0,86,0.00,,,2.20,WUHU216HW,2013-06-13 13:41:00,
2013-06-13 09:46:00,61.7,57.5,29.74,West,270,1.1,2.0,86,0.00,,,2.20,WUHU216HW,2013-06-13 13:46:00,
2013-06-13 09:50:00,61.9,57.7,29.74,West,270,1.1,2.0,86,0.00,,,2.20,WUHU216HW,2013-06-13 13:50:00,
2013-06-13 09:55:00,62.3,58.1,29.75,WNW,293,2.2,2.2,86,0.00,,,2.20,WUHU216HW,2013-06-13 13:55:00,
2013-06-13 10:01:00,62.8,58.6,29.75,SW,225,1.6,2.9,86,0.00,,,2.20,WUHU216HW,2013-06-13 14:01:00,
2013-06-13 10:05:00,63.2,59.0,29.75,West,270,2.0,2.9,86,0.00,,,2.20,WUHU216HW,2013-06-13 14:05:00,
2013-06-13 10:10:00,63.5,59.3,29.75,West,270,1.1,2.9,86,0.00,,,2.20,WUHU216HW,2013-06-13 14:10:00,
2013-06-13 10:15:00,63.9,59.7,29.75,WSW,248,1.1,2.9,86,0.00,,,2.20,WUHU216HW,2013-06-13 14:15:00,
2013-06-13 10:20:00,64.4,59.9,29.75,West,270,1.1,3.4,85,0.00,,,2.20,WUHU216HW,2013-06-13 14:20:00,
2013-06-13 10:25:00,64.4,59.9,29.75,South,180,0.4,3.4,85,0.00,,,2.20,WUHU216HW,2013-06-13 14:25:00,
2013-06-13 10:30:00,64.4,59.9,29.75,West,270,1.6,2.5,85,0.00,,,2.20,WUHU216HW,2013-06-13 14:30:00,
2013-06-13 10:35:00,64.8,60.2,29.75,ESE,113,2.2,2.2,85,0.00,,,2.20,WUHU216HW,2013-06-13 14:35:00,
2013-06-13 10:40:00,65.2,60.6,29.75,SSE,158,0.9,2.2,85,0.00,,,2.20,WUHU216HW,2013-06-13 14:40:00,
2013-06-13 10:45:00,65.5,60.6,29.75,West,270,0.4,2.9,84,0.00,,,2.20,WUHU216HW,2013-06-13 14:45:00,
2013-06-13 10:50:00,65.7,60.4,29.75,West,270,2.7,2.9,83,0.00,,,2.20,WUHU216HW,2013-06-13 14:50:00,
2013-06-13 10:55:00,66.1,60.4,29.75,NW,315,1.1,2.7,82,0.00,,,2.20,WUHU216HW,2013-06-13 14:55:00,
2013-06-13 11:00:00,66.4,60.5,29.75,West,270,1.1,2.0,81,0.00,,,2.20,WUHU216HW,2013-06-13 15:00:00,
2013-06-13 11:05:00,66.8,60.5,29.76,SW,225,1.1,2.5,80,0.00,,,2.20,WUHU216HW,2013-06-13 15:05:00,
2013-06-13 11:10:00,67.3,59.1,29.76,SE,135,1.6,2.7,75,0.00,,,2.20,WUHU216HW,2013-06-13 15:10:00,
2013-06-13 11:15:00,67.3,59.1,29.76,WNW,293,1.1,2.7,75,0.00,,,2.20,WUHU216HW,2013-06-13 15:15:00,
2013-06-13 11:20:00,67.5,59.3,29.77,ENE,68,1.1,2.5,75,0.00,,,2.20,WUHU216HW,2013-06-13 15:20:00,
2013-06-13 11:25:00,68.0,59.9,29.76,ESE,113,2.5,5.1,75,0.00,,,2.20,WUHU216HW,2013-06-13 15:25:00,
2013-06-13 11:30:00,68.2,58.5,29.77,West,270,1.8,5.1,71,0.00,,,2.20,WUHU216HW,2013-06-13 15:30:00,
2013-06-13 11:35:00,68.6,58.9,29.78,ESE,113,2.2,3.6,71,0.00,,,2.20,WUHU216HW,2013-06-13 15:35:00,
2013-06-13 11:40:00,68.9,58.8,29.78,SSW,203,0.7,2.7,70,0.00,,,2.20,WUHU216HW,2013-06-13 15:40:00,
2013-06-13 11:45:00,69.3,57.9,29.78,WNW,293,2.0,4.3,67,0.00,,,2.20,WUHU216HW,2013-06-13 15:45:00,
2013-06-13 11:50:00,69.5,58.0,29.78,SSW,203,1.8,4.3,67,0.00,,,2.20,WUHU216HW,2013-06-13 15:50:00,
2013-06-13 11:55:00,69.7,58.6,29.78,NW,315,1.6,2.5,68,0.00,,,2.20,WUHU216HW,2013-06-13 15:55:00,
2013-06-13 12:00:00,70.2,58.7,29.78,SSE,158,3.6,3.6,67,0.00,,,2.20,WUHU216HW,2013-06-13 16:00:00,
2013-06-13 12:05:00,70.4,59.3,29.78,SE,135,2.9,3.6,68,0.00,,,2.20,WUHU216HW,2013-06-13 16:05:00,
2013-06-13 12:10:00,70.4,58.1,29.79,WSW,248,1.8,3.6,65,0.00,,,2.20,WUHU216HW,2013-06-13 16:10:00,
2013-06-13 12:15:00,70.6,58.2,29.79,SE,135,1.3,3.4,65,0.00,,,2.20,WUHU216HW,2013-06-13 16:15:00,
2013-06-13 12:20:00,70.6,57.0,29.79,West,270,1.1,4.0,62,0.00,,,2.20,WUHU216HW,2013-06-13 16:20:00,
2013-06-13 12:25:00,70.7,57.1,29.79,South,180,1.8,4.0,62,0.00,,,2.20,WUHU216HW,2013-06-13 16:25:00,
2013-06-13 12:30:00,71.1,58.3,29.79,SE,135,3.1,3.1,64,0.00,,,2.20,WUHU216HW,2013-06-13 16:30:00,
2013-06-13 12:35:00,71.5,59.5,29.80,West,270,1.1,3.1,66,0.00,,,2.20,WUHU216HW,2013-06-13 16:35:00,
2013-06-13 12:40:00,71.6,58.0,29.80,WSW,248,3.6,3.6,62,0.00,,,2.20,WUHU216HW,2013-06-13 16:40:00,
2013-06-13 12:45:00,71.6,57.1,29.80,SSW,203,2.7,3.6,60,0.00,,,2.20,WUHU216HW,2013-06-13 16:45:00,
2013-06-13 12:50:00,71.6,57.5,29.80,WSW,248,2.0,3.6,61,0.00,,,2.20,WUHU216HW,2013-06-13 16:50:00,
2013-06-13 12:55:00,71.8,57.7,29.81,South,180,1.8,3.6,61,0.00,,,2.20,WUHU216HW,2013-06-13 16:55:00,
2013-06-13 13:00:00,72.0,56.9,29.81,WNW,293,3.4,3.4,59,0.00,,,2.20,WUHU216HW,2013-06-13 17:00:00,
2013-06-13 13:05:00,72.2,57.5,29.81,SW,225,2.2,3.4,60,0.00,,,2.20,WUHU216HW,2013-06-13 17:05:00,
2013-06-13 13:10:00,72.2,57.5,29.81,WNW,293,3.4,3.4,60,0.00,,,2.20,WUHU216HW,2013-06-13 17:10:00,
2013-06-13 13:15:00,72.4,58.1,29.81,SSW,203,1.1,3.4,61,0.00,,,2.20,WUHU216HW,2013-06-13 17:15:00,
2013-06-13 13:20:00,72.7,57.5,29.80,West,270,2.2,2.7,59,0.00,,,2.20,WUHU216HW,2013-06-13 17:20:00,
2013-06-13 13:25:00,72.9,57.7,29.81,SSW,203,2.5,2.5,59,0.00,,,2.20,WUHU216HW,2013-06-13 17:25:00,
2013-06-13 13:30:00,73.3,59.0,29.81,NE,45,4.3,4.3,61,0.00,,,2.20,WUHU216HW,2013-06-13 17:30:00,
2013-06-13 13:35:00,73.3,57.0,29.81,WSW,248,2.2,4.3,57,0.00,,,2.20,WUHU216HW,2013-06-13 17:35:00,
2013-06-13 13:40:00,73.3,57.0,29.81,ESE,113,1.6,4.7,57,0.00,,,2.20,WUHU216HW,2013-06-13 17:40:00,
2013-06-13 13:45:00,73.3,57.5,29.81,ESE,113,1.6,4.7,58,0.00,,,2.20,WUHU216HW,2013-06-13 17:45:00,
2013-06-13 13:50:00,73.4,57.7,29.82,North,0,0.0,1.6,58,0.00,,,2.20,WUHU216HW,2013-06-13 17:50:00,
2013-06-13 13:55:00,73.6,57.3,29.82,North,0,0.0,0.0,57,0.00,,,2.20,WUHU216HW,2013-06-13 17:55:00,
2013-06-13 14:00:00,74.2,57.4,29.82,North,0,0.0,0.0,56,0.00,,,2.20,WUHU216HW,2013-06-13 18:00:00,
2013-06-13 14:05:00,74.3,58.1,29.81,North,0,0.0,0.0,57,0.00,,,2.20,WUHU216HW,2013-06-13 18:05:00,
2013-06-13 14:10:00,74.3,58.1,29.81,North,0,0.0,0.0,57,0.00,,,2.20,WUHU216HW,2013-06-13 18:10:00,
2013-06-13 14:15:00,74.2,57.9,29.82,North,0,0.0,0.0,57,0.00,,,2.20,WUHU216HW,2013-06-13 18:15:00,
2013-06-13 14:20:00,74.3,58.1,29.82,North,0,0.0,0.0,57,0.00,,,2.20,WUHU216HW,2013-06-13 18:20:00,
2013-06-13 14:25:00,74.5,57.8,29.82,North,0,0.0,0.0,56,0.00,,,2.20,WUHU216HW,2013-06-13 18:25:00,
2013-06-13 14:30:00,74.5,57.8,29.82,North,0,0.0,0.0,56,0.00,,,2.20,WUHU216HW,2013-06-13 18:30:00,
2013-06-13 14:35:00,74.5,57.8,29.83,North,0,0.0,0.0,56,0.00,,,2.20,WUHU216HW,2013-06-13 18:35:00,
2013-06-13 14:40:00,74.5,58.8,29.83,North,0,0.0,0.0,58,0.00,,,2.20,WUHU216HW,2013-06-13 18:40:00,
2013-06-13 14:45:00,74.7,58.4,29.83,North,0,0.0,0.0,57,0.00,,,2.20,WUHU216HW,2013-06-13 18:45:00,
2013-06-13 14:50:00,74.9,58.2,29.83,North,0,0.0,0.0,56,0.00,,,2.20,WUHU216HW,2013-06-13 18:50:00,
2013-06-13 14:55:00,74.7,56.9,29.83,North,0,0.0,0.0,54,0.00,,,2.20,WUHU216HW,2013-06-13 18:55:00,
2013-06-13 15:00:00,74.7,57.4,29.84,North,0,0.0,0.0,55,0.00,,,2.20,WUHU216HW,2013-06-13 19:00:00,
2013-06-13 15:05:00,74.7,58.0,29.84,West,270,1.8,1.8,56,0.00,,,2.20,WUHU216HW,2013-06-13 19:05:00,
2013-06-13 15:10:00,74.7,57.4,29.84,WSW,248,4.0,4.0,55,0.00,,,2.20,WUHU216HW,2013-06-13 19:10:00,
2013-06-13 15:15:00,74.9,58.2,29.84,West,270,2.0,4.0,56,0.00,,,2.20,WUHU216HW,2013-06-13 19:15:00,
2013-06-13 15:20:00,74.7,58.0,29.84,NE,45,1.1,2.0,56,0.00,,,2.20,WUHU216HW,2013-06-13 19:20:00,
2013-06-13 15:25:00,74.9,58.2,29.84,WNW,293,3.1,3.4,56,0.00,,,2.20,WUHU216HW,2013-06-13 19:25:00,
2013-06-13 15:30:00,75.1,57.2,29.84,West,270,2.7,4.7,54,0.00,,,2.20,WUHU216HW,2013-06-13 19:30:00,
2013-06-13 15:35:00,75.2,57.0,29.84,WSW,248,3.1,4.7,53,0.00,,,2.20,WUHU216HW,2013-06-13 19:35:00,
2013-06-13 15:40:00,75.2,57.0,29.84,West,270,1.8,3.1,53,0.00,,,2.20,WUHU216HW,2013-06-13 19:40:00,
2013-06-13 15:45:00,75.2,58.0,29.85,WSW,248,1.8,1.8,55,0.00,,,2.20,WUHU216HW,2013-06-13 19:45:00,
2013-06-13 15:50:00,75.1,58.3,29.85,West,270,1.6,1.8,56,0.00,,,2.20,WUHU216HW,2013-06-13 19:50:00,
2013-06-13 15:55:00,75.1,58.3,29.85,West,270,1.6,2.5,56,0.00,,,2.20,WUHU216HW,2013-06-13 19:55:00,
2013-06-13 16:00:00,75.2,58.0,29.85,WSW,248,3.4,3.4,55,0.00,,,2.20,WUHU216HW,2013-06-13 20:00:00,
2013-06-13 16:05:00,75.6,58.8,29.85,East,90,1.1,3.4,56,0.00,,,2.20,WUHU216HW,2013-06-13 20:05:00,
2013-06-13 16:10:00,76.0,59.6,29.85,SSW,203,1.3,2.5,57,0.00,,,2.20,WUHU216HW,2013-06-13 20:10:00,
2013-06-13 16:15:00,75.6,58.8,29.85,WSW,248,1.6,2.5,56,0.00,,,2.20,WUHU216HW,2013-06-13 20:15:00,
2013-06-13 16:20:00,75.4,58.2,29.85,South,180,0.7,2.5,55,0.00,,,2.20,WUHU216HW,2013-06-13 20:20:00,
2013-06-13 16:25:00,75.6,58.3,29.86,West,270,1.6,2.5,55,0.00,,,2.20,WUHU216HW,2013-06-13 20:25:00,
2013-06-13 16:30:00,75.4,58.2,29.86,ESE,113,1.8,2.2,55,0.00,,,2.20,WUHU216HW,2013-06-13 20:30:00,
2013-06-13 16:35:00,75.6,58.3,29.85,West,270,0.4,2.2,55,0.00,,,2.20,WUHU216HW,2013-06-13 20:35:00,
2013-06-13 16:40:00,75.6,57.2,29.85,SE,135,1.3,2.7,53,0.00,,,2.20,WUHU216HW,2013-06-13 20:40:00,
2013-06-13 16:45:00,75.6,57.2,29.85,WSW,248,2.9,2.9,53,0.00,,,2.20,WUHU216HW,2013-06-13 20:45:00,
2013-06-13 16:50:00,75.4,56.1,29.86,East,90,1.3,4.0,51,0.00,,,2.20,WUHU216HW,2013-06-13 20:50:00,
2013-06-13 16:55:00,75.4,56.1,29.86,West,270,1.3,4.0,51,0.00,,,2.20,WUHU216HW,2013-06-13 20:55:00,
2013-06-13 17:00:00,75.4,56.6,29.85,ESE,113,1.1,2.9,52,0.00,,,2.20,WUHU216HW,2013-06-13 21:00:00,
2013-06-13 17:05:00,75.4,57.2,29.86,ESE,113,1.8,2.9,53,0.00,,,2.20,WUHU216HW,2013-06-13 21:05:00,
2013-06-13 17:10:00,75.4,57.6,29.86,WNW,293,1.8,2.5,54,0.00,,,2.20,WUHU216HW,2013-06-13 21:10:00,
2013-06-13 17:15:00,75.2,57.0,29.86,SSE,158,1.1,2.7,53,0.00,,,2.20,WUHU216HW,2013-06-13 21:15:00,
2013-06-13 17:20:00,75.2,55.4,29.86,West,270,1.3,2.7,50,0.00,,,2.20,WUHU216HW,2013-06-13 21:20:00,
2013-06-13 17:25:00,75.2,56.0,29.87,West,270,1.8,2.7,51,0.00,,,2.20,WUHU216HW,2013-06-13 21:25:00,
2013-06-13 17:30:00,75.2,56.4,29.87,South,180,1.1,2.2,52,0.00,,,2.20,WUHU216HW,2013-06-13 21:30:00,
2013-06-13 17:35:00,75.2,57.0,29.87,West,270,2.9,2.9,53,0.00,,,2.20,WUHU216HW,2013-06-13 21:35:00,
2013-06-13 17:40:00,75.2,56.4,29.86,SW,225,3.1,3.1,52,0.00,,,2.20,WUHU216HW,2013-06-13 21:40:00,
2013-06-13 17:45:00,75.2,56.0,29.87,NW,315,1.8,3.1,51,0.00,,,2.20,WUHU216HW,2013-06-13 21:45:00,
2013-06-13 17:50:00,75.1,56.8,29.87,South,180,1.3,3.1,53,0.00,,,2.20,WUHU216HW,2013-06-13 21:50:00,
2013-06-13 17:55:00,75.1,57.2,29.87,WSW,248,1.1,3.1,54,0.00,,,2.20,WUHU216HW,2013-06-13 21:55:00,
2013-06-13 18:00:00,74.5,56.7,29.88,SSE,158,1.1,2.5,54,0.00,,,2.20,WUHU216HW,2013-06-13 22:00:00,
2013-06-13 18:05:00,74.5,56.7,29.88,West,270,2.9,3.1,54,0.00,,,2.20,WUHU216HW,2013-06-13 22:05:00,
2013-06-13 18:10:00,74.7,56.9,29.88,SSW,203,1.6,3.1,54,0.00,,,2.20,WUHU216HW,2013-06-13 22:10:00,
2013-06-13 18:15:00,74.9,56.6,29.88,West,270,1.8,2.0,53,0.00,,,2.20,WUHU216HW,2013-06-13 22:15:00,
2013-06-13 18:20:00,74.9,57.1,29.88,West,270,0.0,2.7,54,0.00,,,2.20,WUHU216HW,2013-06-13 22:20:00,
2013-06-13 18:25:00,74.9,57.6,29.88,SSE,158,0.7,2.9,55,0.00,,,2.20,WUHU216HW,2013-06-13 22:25:00,
2013-06-13 18:30:00,74.7,56.9,29.88,West,270,0.4,2.9,54,0.00,,,2.20,WUHU216HW,2013-06-13 22:30:00,
2013-06-13 18:35:00,74.5,56.7,29.88,West,270,1.8,2.5,54,0.00,,,2.20,WUHU216HW,2013-06-13 22:35:00,
2013-06-13 18:40:00,74.5,56.7,29.88,West,270,3.4,3.4,54,0.00,,,2.20,WUHU216HW,2013-06-13 22:40:00,
2013-06-13 18:45:00,74.2,56.3,29.88,West,270,0.7,3.4,54,0.00,,,2.20,WUHU216HW,2013-06-13 22:45:00,
2013-06-13 18:50:00,73.8,56.0,29.88,WNW,293,0.9,2.9,54,0.00,,,2.20,WUHU216HW,2013-06-13 22:50:00,
2013-06-13 18:55:00,73.4,55.6,29.88,West,270,1.3,4.0,54,0.00,,,2.20,WUHU216HW,2013-06-13 22:55:00,
2013-06-13 19:00:00,73.1,56.3,29.89,NW,315,0.4,4.0,56,0.00,,,2.20,WUHU216HW,2013-06-13 23:00:00,
2013-06-13 19:05:00,72.7,56.5,29.89,NW,315,0.4,1.6,57,0.00,,,2.20,WUHU216HW,2013-06-13 23:05:00,
2013-06-13 19:10:00,72.4,56.7,29.89,SSW,203,0.9,1.6,58,0.00,,,2.20,WUHU216HW,2013-06-13 23:10:00,
2013-06-13 19:15:00,72.0,56.9,29.89,West,270,0.9,1.3,59,0.00,,,2.20,WUHU216HW,2013-06-13 23:15:00,
2013-06-13 19:20:00,71.8,57.3,29.89,WSW,248,0.4,2.0,60,0.00,,,2.20,WUHU216HW,2013-06-13 23:20:00,
2013-06-13 19:25:00,71.6,57.5,29.89,West,270,0.4,2.0,61,0.00,,,2.20,WUHU216HW,2013-06-13 23:25:00,
2013-06-13 19:30:00,71.6,57.5,29.89,SW,225,0.4,1.6,61,0.00,,,2.20,WUHU216HW,2013-06-13 23:30:00,
2013-06-13 19:35:00,71.5,57.8,29.90,West,270,0.7,1.8,62,0.00,,,2.20,WUHU216HW,2013-06-13 23:35:00,
2013-06-13 19:40:00,71.6,58.0,29.90,NW,315,0.9,1.8,62,0.00,,,2.20,WUHU216HW,2013-06-13 23:40:00,
2013-06-13 19:45:00,71.6,58.0,29.90,WSW,248,0.4,3.1,62,0.00,,,2.20,WUHU216HW,2013-06-13 23:45:00,
2013-06-13 19:50:00,71.8,58.5,29.90,WSW,248,2.5,3.1,63,0.00,,,2.20,WUHU216HW,2013-06-13 23:50:00,
2013-06-13 19:55:00,71.8,58.5,29.90,West,270,0.7,2.5,63,0.00,,,2.20,WUHU216HW,2013-06-13 23:55:00,
2013-06-13 20:00:00,71.6,58.0,29.90,NW,315,0.4,1.3,62,0.00,,,2.20,WUHU216HW,2013-06-14 00:00:00,
2013-06-13 20:05:00,71.6,58.0,29.91,WNW,293,0.9,1.3,62,0.00,,,2.20,WUHU216HW,2013-06-14 00:05:00,
2013-06-13 20:10:00,71.5,58.2,29.90,WSW,248,0.7,1.1,63,0.00,,,2.20,WUHU216HW,2013-06-14 00:10:00,
2013-06-13 20:15:00,71.3,58.1,29.90,WNW,293,0.9,1.3,63,0.00,,,2.20,WUHU216HW,2013-06-14 00:15:00,
2013-06-13 20:20:00,71.1,57.9,29.91,West,270,1.1,1.3,63,0.00,,,2.20,WUHU216HW,2013-06-14 00:20:00,
2013-06-13 20:25:00,71.1,57.9,29.91,WNW,293,1.1,1.3,63,0.00,,,2.20,WUHU216HW,2013-06-14 00:25:00,
2013-06-13 20:30:00,70.9,57.7,29.91,WNW,293,0.9,1.3,63,0.00,,,2.20,WUHU216HW,2013-06-14 00:30:00,
2013-06-13 20:35:00,70.9,57.7,29.91,SW,225,1.1,2.0,63,0.00,,,2.20,WUHU216HW,2013-06-14 00:35:00,
2013-06-13 20:40:00,70.6,57.3,29.91,West,270,1.1,2.0,63,0.00,,,2.20,WUHU216HW,2013-06-14 00:40:00,
2013-06-13 20:44:00,70.6,57.8,29.91,WSW,248,0.0,1.8,64,0.00,,,2.20,WUHU216HW,2013-06-14 00:44:00,
2013-06-13 20:49:00,70.4,57.6,29.91,West,270,1.6,1.8,64,0.00,,,2.20,WUHU216HW,2013-06-14 00:49:00,
2013-06-13 20:54:00,70.2,57.4,29.92,West,270,0.2,1.8,64,0.00,,,2.20,WUHU216HW,2013-06-14 00:54:00,
2013-06-13 20:59:00,70.0,57.7,29.92,West,270,1.1,1.8,65,0.00,,,2.20,WUHU216HW,2013-06-14 00:59:00,
2013-06-13 21:04:00,69.8,57.5,29.92,WSW,248,0.7,1.8,65,0.00,,,2.20,WUHU216HW,2013-06-14 01:04:00,
2013-06-13 21:09:00,69.7,57.3,29.92,West,270,1.1,1.8,65,0.00,,,2.20,WUHU216HW,2013-06-14 01:09:00,
2013-06-13 21:14:00,69.5,57.6,29.92,West,270,0.4,1.3,66,0.00,,,2.20,WUHU216HW,2013-06-14 01:14:00,
2013-06-13 21:19:00,69.3,57.4,29.93,West,270,0.4,1.1,66,0.00,,,2.20,WUHU216HW,2013-06-14 01:19:00,
2013-06-13 21:24:00,68.9,57.5,29.93,West,270,0.9,1.1,67,0.00,,,2.20,WUHU216HW,2013-06-14 01:24:00,
2013-06-13 21:29:00,68.8,57.3,29.93,West,270,0.9,1.3,67,0.00,,,2.20,WUHU216HW,2013-06-14 01:29:00,
2013-06-13 21:34:00,68.6,57.6,29.93,West,270,1.1,1.3,68,0.00,,,2.20,WUHU216HW,2013-06-14 01:34:00,
2013-06-13 21:39:00,68.4,57.4,29.93,West,270,0.4,1.3,68,0.00,,,2.20,WUHU216HW,2013-06-14 01:39:00,
2013-06-13 21:44:00,68.2,57.7,29.93,West,270,0.9,1.8,69,0.00,,,2.20,WUHU216HW,2013-06-14 01:44:00,
2013-06-13 21:49:00,68.0,57.5,29.93,WSW,248,0.4,1.8,69,0.00,,,2.20,WUHU216HW,2013-06-14 01:49:00,
2013-06-13 21:54:00,67.9,57.8,29.93,West,270,0.7,1.6,70,0.00,,,2.20,WUHU216HW,2013-06-14 01:54:00,
2013-06-13 21:59:00,67.7,57.6,29.94,West,270,0.4,1.6,70,0.00,,,2.20,WUHU216HW,2013-06-14 01:59:00,
2013-06-13 22:04:00,67.7,57.6,29.95,WSW,248,0.0,1.6,70,0.00,,,2.20,WUHU216HW,2013-06-14 02:04:00,
2013-06-13 22:09:00,67.5,57.8,29.94,West,270,0.7,0.9,71,0.00,,,2.20,WUHU216HW,2013-06-14 02:09:00,
2013-06-13 22:14:00,67.3,57.6,29.94,West,270,0.7,0.7,71,0.00,,,2.20,WUHU216HW,2013-06-14 02:14:00,
2013-06-13 22:19:00,67.3,57.6,29.94,West,270,0.0,1.1,71,0.00,,,2.20,WUHU216HW,2013-06-14 02:19:00,
2013-06-13 22:24:00,67.3,58.0,29.94,West,270,0.0,1.1,72,0.00,,,2.20,WUHU216HW,2013-06-14 02:24:00,
2013-06-13 22:29:00,67.1,57.8,29.94,West,270,0.0,0.2,72,0.00,,,2.20,WUHU216HW,2013-06-14 02:29:00,
2013-06-13 22:34:00,67.0,57.6,29.94,West,270,0.0,0.2,72,0.00,,,2.20,WUHU216HW,2013-06-14 02:34:00,
2013-06-13 22:39:00,66.8,57.9,29.94,West,270,0.0,0.2,73,0.00,,,2.20,WUHU216HW,2013-06-14 02:39:00,
2013-06-13 22:44:00,66.6,57.7,29.94,West,270,0.0,0.0,73,0.00,,,2.20,WUHU216HW,2013-06-14 02:44:00,
2013-06-13 22:49:00,66.6,57.7,29.94,West,270,0.0,0.0,73,0.00,,,2.20,WUHU216HW,2013-06-14 02:49:00,
2013-06-13 22:54:00,66.4,57.5,29.94,West,270,0.0,0.0,73,0.00,,,2.20,WUHU216HW,2013-06-14 02:54:00,
2013-06-13 22:59:00,66.4,57.9,29.94,WSW,248,0.0,0.7,74,0.00,,,2.20,WUHU216HW,2013-06-14 02:59:00,
2013-06-13 23:04:00,66.2,57.7,29.94,WSW,248,0.0,0.7,74,0.00,,,2.20,WUHU216HW,2013-06-14 03:04:00,
2013-06-13 23:09:00,66.4,57.9,29.95,WSW,248,0.0,0.0,74,0.00,,,2.20,WUHU216HW,2013-06-14 03:09:00,
2013-06-13 23:14:00,66.4,57.9,29.95,WSW,248,0.0,0.4,74,0.00,,,2.20,WUHU216HW,2013-06-14 03:14:00,
2013-06-13 23:19:00,66.4,57.9,29.95,WSW,248,0.0,0.4,74,0.00,,,2.20,WUHU216HW,2013-06-14 03:19:00,
2013-06-13 23:24:00,66.4,57.9,29.95,WSW,248,0.2,0.2,74,0.00,,,2.20,WUHU216HW,2013-06-14 03:24:00,
2013-06-13 23:29:00,66.6,58.1,29.96,SSW,203,1.6,2.5,74,0.00,,,2.20,WUHU216HW,2013-06-14 03:29:00,
2013-06-13 23:34:00,66.6,58.4,29.96,WSW,248,0.9,2.5,75,0.00,,,2.20,WUHU216HW,2013-06-14 03:34:00,
2013-06-13 23:39:00,66.4,58.6,29.96,WSW,248,1.1,2.5,76,0.00,,,2.20,WUHU216HW,2013-06-14 03:39:00,
2013-06-13 23:44:00,66.2,58.4,29.96,NW,315,1.3,2.5,76,0.00,,,2.20,WUHU216HW,2013-06-14 03:44:00,
2013-06-13 23:49:00,65.7,57.9,29.96,West,270,2.5,2.5,76,0.00,,,2.20,WUHU216HW,2013-06-14 03:49:00,
2013-06-13 23:54:00,65.3,57.6,29.96,West,270,0.4,2.5,76,0.00,,,2.20,WUHU216HW,2013-06-14 03:54:00,
2013-06-13 23:59:00,65.2,57.8,29.96,SW,225,1.1,1.6,77,0.00,,,2.20,WUHU216HW,2013-06-14 03:59:00,